Regional Weather Roundup
Issued by NWS

Home | Current Version | Previous Version | Graphics & Text | Print | Product List | Glossary On
Versions: 1 2 3 4 5 6 7 8 9 10 11 12 13 14 15 16 17 18 19 20 21 22 23 24 25 26 27 28 29 30 31 32 33 34 35 36 37 38 39 40 41 42 43 44 45 46 47 48 49 50
000
ASUS43 KLMK 200502
RWRKY
KENTUCKY REGIONAL WEATHER ROUNDUP
NATIONAL WEATHER SERVICE LOUISVILLE KY
1200 AM EST TUE FEB 20 2018

NOTE "FAIR" INDICATES FEW OR NO CLOUDS BELOW 12,000 FEET
WITH NO SIGNIFICANT WEATHER AND/OR OBSTRUCTIONS TO VISIBILITY.

KYZ001>023-026-027-061>063-070>075-200600-
WESTERN AND SOUTH CENTRAL KENTUCKY

CITY           SKY/WX    TMP DP  RH WIND       PRES   REMARKS
PADUCAH        FAIR      68  58  70 S13G22    30.01F
HENDERSON      FAIR      66  58  75 S20G25    30.03S
OWENSBORO      FAIR      66  58  75 S15       30.06R
HOPKINSVILLE   FAIR      69  57  67 S10G21    30.09R
BOWLING GREEN  FAIR      67  56  67 S13       30.13R
GLASGOW        NOT AVBL
$$

KYZ024-025-028>034-038-045-046-053-200600-
NORTH CENTRAL KENTUCKY

CITY           SKY/WX    TMP DP  RH WIND       PRES   REMARKS
LOUISVILLE/SDF CLOUDY    67  56  67 S17G28    30.08S
LOUISVILLE/LOU FAIR      66  57  72 S9G21     30.09S
FORT KNOX      FAIR      64  55  74 S15       30.09F
$$

KYZ035>037-039>044-047>052-055>060-089>105-200600-
NORTHEAST KENTUCKY

CITY           SKY/WX    TMP DP  RH WIND       PRES   REMARKS
LEXINGTON      FAIR      63  55  75 S13       30.15S
COVINGTON      CLOUDY    63  56  78 S14       30.09R
FRANKFORT      FAIR      63  54  72 S10       30.12S
$$

KYZ054-064>069-076>088-106>120-200600-
SOUTHEAST KENTUCKY

CITY           SKY/WX    TMP DP  RH WIND       PRES   REMARKS
JACKSON        FAIR      63  53  70 SW7       30.21S
LONDON         CLOUDY    64  54  69 S8G17     30.22R
SOMERSET       NOT AVBL
MIDDLESBORO    FAIR      63  55  75 S7        30.27S
MONTICELLO     NOT AVBL
$$





USA.gov is the U.S. government's official web portal to all federal, state and local government web resources and services.